Weather Roundup
Issued by NWS

Home | Current Version | Previous Version | Text Only | Print | Product List | Glossary On
Versions: 1 2 3 4 5 6 7 8 9 10 11 12 13 14 15 16 17 18 19 20 21 22 23 24 25 26 27 28 29 30 31 32 33 34 35 36 37 38 39 40 41 42 43 44 45 46 47 48 49 50
000
NZUS93 KARX 280310
HRRWXR

CURRENT HOURLY OBSERVATIONS ACROSS
MUCH OF THE UPPER MISSISSIPPI VALLEY
NATIONAL WEATHER SERVICE LA CROSSE WI
900 PM CST FRI FEB 27 2015


...SOUTHEAST MINNESOTA...


CITY           SKY/WX    TMP DP  RH WIND       PRES   REMARKS
ROCHESTER      PTCLDY    -5 -10  79 S8        30.52R WCI -20
ROCHESTER/MAYO FAIR       2  -6  70 S6        30.53R WCI  -9
WINONA         CLEAR      9   0  66 SW3       30.60R
AUSTIN         PTCLDY    -2  -8  78 S6        30.53R WCI -14
ALBERT LEA     PTCLDY     1  -2  85 S5        30.52R WCI  -8
DODGE CENTER   PTCLDY    -2  -8  78 S7        30.50R WCI -16
PRESTON        PTCLDY    -3  -8  81 SW6       30.54R WCI -15
OWATONNA       PTCLDY     1  -4  78 S7        30.52R WCI -11
FARIBAULT      FAIR       0  -6  78 S5        30.53R WCI -10
$$

...ELSEWHERE IN MINNESOTA...


CITY           SKY/WX    TMP DP  RH WIND       PRES   REMARKS
MINNEAPOLIS    CLEAR      8  -3  61 SW7       30.53S WCI  -3
INTNL FALLS    CLEAR      7  -9  48 SW7       30.32S WCI  -5
DULUTH         CLEAR     10  -7  46 SW10      30.37S WCI  -4
RED WING       CLEAR      1  -6  71 CALM      30.55S
REDWOOD FALLS  CLEAR      3  -3  76 SW9G30    30.49R WCI -12
MANKATO        FAIR       3  -6  66 S8        30.51S WCI -10
FAIRMONT       CLEAR      1  -6  71 S7        30.49R WCI -11
$$

...SOUTHWEST WISCONSIN...


CITY           SKY/WX    TMP DP  RH WIND       PRES   REMARKS
LA CROSSE      CLEAR      4  -6  63 S5        30.60R WCI  -5
PRAIRIE DU CHI PTCLDY    -1  -9  69 CALM      30.63R
BOSCOBEL       PTCLDY     1  -8  66 SW5       30.63R WCI  -9
LONE ROCK      CLEAR      3  -7  63 SW3       30.62R
PLATTEVILLE    CLEAR      0  -7  72 S3        30.60R
FORT MC COY    CLEAR     -2 -10  67 CALM      30.58R
CAMP DOUGLAS   CLEAR      5  -6  59 SW7       30.55S WCI  -7
VIROQUA        FAIR       0  -7  73 SW6       30.53R WCI -12
WIS DELLS      CLEAR      5  -6  60 SW7       30.56R WCI  -7
$$

...ELSEWHERE IN WISCONSIN...


CITY           SKY/WX    TMP DP  RH WIND       PRES   REMARKS
MILWAUKEE      FAIR       8  -6  52 SW8       30.62R WCI  -4
MADISON        CLEAR      5  -6  60 SW5       30.59R WCI  -4
GREEN BAY      CLEAR     11  -2  56 SW6       30.54R WCI   1
EAU CLAIRE     CLEAR      5  -4  66 SW7       30.53R WCI  -7
BLACK RVR FLS  FAIR      -3 -11  69 SW3       30.56R
MEDFORD        CLEAR      3  -5  68 SW5       30.46R WCI  -6
WAUSAU         CLEAR      4  -4  69 CALM      30.48R
WIS RAPIDS     CLEAR      7  -9  48 W6        30.54R WCI  -3
MARSHFIELD     CLEAR      4  -7  60 W6        30.50R WCI  -7
RICE LAKE      CLEAR      6  -3  67 SW5       30.50S WCI  -3
$$

...NORTHEAST IOWA...


CITY           SKY/WX    TMP DP  RH WIND       PRES   REMARKS
DECORAH        PTCLDY    -2  -9  71 S3        30.56R
MASON CITY     PTCLDY    -8 -11  86 S7        30.56R WCI -23
CHARLES CITY   PTCLDY    -4  -9  77 S7        30.58R WCI -18
OELWEIN        PTCLDY    -4  -9  77 SW3       30.59R
$$

...ELSEWHERE IN IOWA...


CITY           SKY/WX    TMP DP  RH WIND       PRES   REMARKS
DES MOINES     CLEAR      9  -1  64 E5        30.59S WCI   1
IOWA CITY      PTCLDY    -3  -8  79 CALM      30.67R
FORT DODGE     CLEAR      0  -6  78 S5        30.56R WCI -10
$$

...NORTHERN ILLINOIS...


CITY           SKY/WX    TMP DP  RH WIND       PRES   REMARKS
CHICAGO-OHARE  FAIR       5  -7  57 W6        30.64R WCI  -6
CHICAGO-MIDWAY CLEAR      7  -4  60 SW5       30.66R WCI  -2
MOLINE         FAIR      -7 -12  79 CALM      30.67R
ROCKFORD       CLEAR      0  -9  65 CALM      30.65R
PEORIA         FAIR       7  -3  64 CALM      30.67R
$$

NOTE: "FAIR" INDICATES FEW OR NO CLOUDS BELOW 12,000 FEET WITH NO
SIGNIFICANT WEATHER AND/OR OBSTRUCTIONS TO VISIBILITY. WIND
SPEEDS ARE IN MILES-PER-HOUR.



USA.gov is the U.S. government's official web portal to all federal, state and local government web resources and services.